RH
54 48 49 46 53 49 41 37 41 39 39 29 25 24 15 9 5 4 4 4 4 3 2 2 2 3 2 4 15 37 22 18 17 13 31 67 90 92 80 54 40 34 12 6 8
73 73 72 56 66 61 40 42 43 41 45 43 36 31 22 9 6 5 4 4 3 3 2 2 3 4 4 6 23 32 31 25 15 14 34 81 99 94 65 41 37 27 10 6 10
71 68 79 70 73 59 55 48 49 51 46 45 42 44 37 8 6 6 5 4 3 3 3 4 4 5 4 9 22 36 25 23 14 15 49 80 97 97 70 44 37 30 12 8 7
81 58 62 59 58 51 49 49 49 56 52 48 40 30 40 30 17 8 6 4 4 3 3 5 6 6 11 12 26 44 51 26 15 20 32 58 75 92 81 58 44 33 19 10 9
87 67 66 66 53 45 44 48 51 55 54 42 31 18 11 8 8 8 4 4 4 3 4 7 10 17 17 18 36 38 55 27 15 21 36 39 39 62 69 67 49 37 26 11 10
80 78 74 66 57 54 48 53 54 47 42 32 21 14 11 10 9 9 6 4 5 4 5 7 10 16 25 25 28 61 69 30 16 20 32 48 33 60 67 67 53 43 31 14 10
69 66 61 59 57 55 58 57 53 44 29 19 17 14 12 10 10 8 6 6 5 5 6 9 10 20 26 25 48 52 73 46 18 18 24 48 37 49 70 67 54 44 30 20 12
72 66 63 62 64 60 65 60 46 32 23 19 17 14 14 12 11 10 7 6 6 5 7 9 10 27 47 52 66 65 79 61 26 19 22 36 32 56 74 71 55 42 28 24 13
74 70 71 71 72 70 70 59 39 27 22 21 19 16 14 14 12 11 9 9 8 7 7 6 13 39 61 76 90 90 91 79 26 23 25 31 36 65 92 66 53 38 32 28 20
81 82 84 78 74 66 54 44 31 24 25 24 21 20 18 15 13 13 10 10 10 10 6 8 28 56 73 86 71 98 98 69 28 29 48 81 67 71 94 88 58 37 34 34 23
88 87 85 76 66 55 45 34 32 29 30 27 23 21 18 17 16 15 10 12 12 10 5 7 42 64 68 100 100 100 93 83 35 33 57 69 74 78 95 100 81 55 48 41 29
86 87 83 76 66 58 50 42 36 38 34 29 26 22 23 18 15 12 12 14 15 8 6 8 46 78 89 97 92 94 97 62 34 45 97 91 88 96 99 94 88 52 36 32 37
82 82 80 74 73 66 58 48 40 32 31 37 28 27 24 22 19 16 16 17 17 7 6 12 78 88 80 88 97 100 85 81 37 89 89 82 94 90 75 94 89 58 46 31 35
51 38 40 43 50 56 52 55 47 41 35 33 30 30 28 24 19 20 23 20 15 9 7 22 61 82 68 90 95 90 99 94 68 92 94 99 78 92 92 94 99 91 63 42 40
8 6 6 17 26 41 36 48 41 42 41 35 30 32 31 26 21 28 25 21 18 10 7 23 56 93 71 78 97 96 95 80 74 78 90 68 59 56 68 77 90 87 90 75 58
4 3 2 4 3 12 42 41 42 43 43 38 32 31 33 30 27 33 34 28 19 11 8 20 38 88 100 100 91 100 92 79 69 67 74 78 63 46 57 78 96 93 100 88 49
2 2 2 2 2 2 16 40 51 37 48 48 35 30 34 35 32 32 36 32 20 13 8 16 33 67 92 98 98 96 98 98 87 82 70 73 80 46 73 96 87 91 80 98 63
1 2 2 2 2 2 4 29 21 41 54 73 43 35 31 31 32 32 37 28 21 10 8 10 31 53 99 98 99 96 92 97 97 99 88 95 77 50 85 98 95 99 97 93 76
2 3 3 4 4 4 4 5 6 58 57 52 49 41 33 30 33 40 42 38 28 12 7 7 28 47 93 98 97 100 92 100 98 98 86 94 76 94 98 97 95 93 95 93 65
8 8 9 10 8 8 5 3 6 62 59 48 49 46 33 65 37 51 51 38 32 22 18 14 21 39 94 100 96 100 99 98 98 97 92 96 96 99 89 99 100 97 94 92 81
21 13 23 19 11 10 6 4 9 56 54 48 45 39 33 35 36 50 50 57 43 35 23 25 14 44 68 93 100 100 99 97 98 98 97 96 97 96 100 100 97 100 85 74 75
25 21 36 22 22 12 8 7 9 53 41 50 47 35 30 26 35 42 26 34 38 52 27 28 25 51 62 97 100 98 100 96 96 97 95 100 100 97 98 99 86 100 98 53 48
29 27 44 38 27 39 23 10 9 32 42 47 45 35 29 26 30 38 24 28 26 21 15 24 16 13 46 83 99 100 100 99 99 99 97 96 98 100 98 98 97 100 95 87 80
21 20 37 41 36 92 100 46 10 16 33 41 43 36 26 30 32 39 25 42 24 28 16 10 7 6 14 43 97 99 99 100 100 98 99 92 98 98 97 98 97 100 95 100 100
18 20 37 47 46 65 100 85 98 28 21 28 37 27 22 25 24 30 22 17 19 25 25 9 6 5 5 10 62 100 98 99 99 100 97 100 96 97 98 97 98 97 92 91 87
17 21 44 62 83 73 71 66 100 100 100 31 23 24 22 36 37 16 23 19 18 24 25 11 6 8 47 66 41 83 99 98 98 99 98 100 96 98 96 99 94 99 95 99 96
14 36 73 61 98 100 99 80 75 100 100 100 51 30 28 39 17 14 14 10 8 7 6 8 5 12 48 81 52 55 100 100 98 100 99 100 97 98 99 96 93 96 96 87 100
Wind_Speed
45 48 48 47 44 43 43 43 43 43 43 42 44 46 45 44 43 42 46 46 45 45 43 42 43 45 46 45 45 44 50 52 40 30 17 17 15 28 34 34 30 27 27 20 20
43 46 52 54 56 48 48 55 53 54 54 50 45 45 46 44 43 43 43 42 41 40 43 44 47 48 47 45 46 48 50 46 36 29 28 14 17 29 37 30 27 28 24 13 14
51 46 50 49 44 50 52 53 49 52 52 52 51 56 47 44 42 41 42 41 42 43 46 45 47 47 49 45 43 43 48 41 38 29 36 29 24 27 36 30 23 25 24 19 18
50 47 45 46 48 48 52 52 50 50 52 50 49 49 51 49 46 42 43 42 42 42 43 46 46 48 45 43 37 45 44 42 39 31 39 34 38 36 41 33 24 24 21 22 22
51 50 51 50 49 50 51 48 45 45 46 44 41 41 41 41 41 45 43 41 44 43 45 42 43 42 43 42 40 43 40 41 40 35 40 38 37 29 39 26 25 27 19 21 23
52 52 55 51 49 47 47 49 45 41 42 41 39 38 38 40 40 38 41 43 46 44 47 42 41 44 44 44 44 40 41 39 40 40 40 40 38 32 23 25 24 27 20 22 20
53 52 52 51 49 47 43 43 40 40 40 39 37 37 36 38 39 39 42 44 45 45 46 41 42 46 44 45 45 42 43 41 43 44 41 39 39 29 22 24 23 27 23 19 21
50 50 50 50 47 46 41 39 40 39 39 38 38 37 34 37 38 40 42 44 44 46 42 42 45 46 40 43 43 42 45 44 44 44 42 39 33 21 24 27 26 26 22 18 17
49 49 49 47 45 41 40 40 39 38 39 39 37 36 36 38 40 40 41 41 43 43 41 38 45 42 39 43 44 38 43 48 44 37 37 35 27 17 21 26 29 27 20 22 10
48 46 45 43 44 43 41 40 39 38 38 38 40 37 38 38 39 39 42 40 37 38 37 39 43 36 38 41 40 35 38 39 35 29 25 19 26 23 21 25 28 24 18 23 15
47 46 44 42 43 43 41 38 40 41 39 40 40 36 40 37 37 37 42 38 35 36 36 39 42 38 34 37 38 39 45 37 36 28 36 29 22 21 19 21 25 22 19 22 21
48 46 45 43 42 42 41 41 42 43 39 40 36 37 34 39 39 41 39 36 34 33 34 39 38 30 31 40 38 37 43 39 32 30 31 29 20 23 26 30 28 22 21 19 21
47 46 45 46 42 42 42 42 40 40 43 32 37 36 36 36 35 36 36 35 34 27 31 36 29 26 32 37 39 41 43 34 30 38 38 25 28 31 21 19 25 26 20 20 19
46 46 45 45 44 44 42 40 40 41 42 39 36 35 35 35 35 33 31 32 31 27 28 30 26 25 33 37 35 37 48 39 38 43 41 26 26 33 30 27 21 21 22 21 19
48 48 46 46 45 43 43 43 43 42 42 40 37 34 30 31 33 29 31 30 30 25 26 25 27 27 31 34 37 37 50 48 50 52 41 36 33 26 27 26 21 19 16 22 21
54 52 52 51 49 46 42 42 42 39 39 36 36 34 32 29 30 30 28 26 25 21 23 22 25 25 30 32 40 36 51 51 51 47 53 40 42 27 20 13 15 19 15 20 20
58 56 55 53 52 50 47 42 39 39 31 31 34 36 33 30 31 30 24 25 23 22 21 20 20 25 25 31 36 37 44 51 51 49 55 39 40 23 15 18 17 14 17 24 16
59 57 57 54 54 51 47 44 44 37 31 23 34 34 26 24 28 33 24 20 23 21 20 15 17 26 24 23 23 35 39 45 46 46 49 34 43 19 16 23 20 21 27 29 20
56 52 50 49 48 49 48 47 42 33 29 31 36 32 24 27 27 30 28 28 23 21 19 15 12 18 16 26 24 24 36 35 45 50 41 39 28 19 22 17 20 27 27 27 22
42 39 36 41 44 47 48 47 41 38 38 40 36 31 28 22 31 26 27 26 24 21 17 15 11 10 15 28 30 20 20 35 39 41 41 33 32 21 20 18 23 19 20 26 24
37 36 36 39 42 48 48 42 38 36 39 39 38 34 33 34 34 27 26 25 22 20 22 17 11 12 15 11 30 24 27 36 35 39 36 30 32 33 28 28 28 27 29 31 28
33 27 29 31 41 43 41 40 39 39 43 43 40 36 36 36 36 32 30 31 26 20 21 20 14 14 11 11 17 25 36 32 42 42 35 29 32 39 31 32 34 33 33 30 26
30 28 31 28 32 36 34 39 42 40 39 43 42 38 36 37 36 33 29 33 29 25 24 25 19 16 14 16 16 21 20 37 39 43 40 40 35 44 29 44 39 34 32 24 27
36 34 30 30 27 21 28 31 39 38 39 40 42 39 39 40 37 33 31 31 30 28 26 26 21 20 20 18 15 20 25 27 42 39 24 42 40 23 33 34 36 38 36 31 31
35 31 28 28 26 41 28 25 14 32 36 37 39 36 34 38 36 35 34 33 31 30 28 25 22 23 20 18 19 12 23 24 35 38 33 28 46 39 25 31 40 39 39 39 35
34 28 28 26 21 28 37 32 26 17 19 30 33 34 34 36 38 35 38 39 34 32 30 26 25 24 20 17 22 16 17 19 35 45 37 27 36 39 42 32 39 44 48 47 38
29 25 28 21 33 21 18 28 28 26 19 20 24 31 32 34 37 36 36 35 30 29 30 29 26 26 23 22 20 20 18 18 22 20 23 28 31 40 31 26 30 40 43 43 43
Wind_Direction
265 266 268 270 274 275 277 279 281 282 286 284 282 280 277 275 273 269 270 274 276 278 278 276 276 276 273 271 267 261 258 259 252 241 209 200 298 287 278 279 275 279 282 297 296
273 275 265 265 274 279 274 274 268 279 284 284 282 285 280 275 274 275 274 276 275 278 280 277 278 278 276 271 260 257 257 260 248 232 215 189 254 269 265 271 264 269 271 286 275
273 274 269 269 275 262 269 278 275 269 268 273 279 277 278 276 275 275 278 277 274 278 281 283 284 280 278 274 267 263 263 254 239 228 209 199 214 262 264 276 276 282 288 297 291
268 270 270 272 272 272 271 273 274 272 270 271 271 272 263 270 272 267 273 275 278 279 282 286 285 282 280 272 263 257 257 252 238 222 225 213 211 218 248 267 271 272 282 292 296
269 269 271 272 274 276 275 273 275 274 272 269 268 269 270 269 273 270 270 276 281 280 285 286 282 284 277 263 255 258 256 248 238 221 225 224 231 232 239 259 271 275 281 280 292
273 272 270 272 272 272 271 273 271 269 270 267 268 269 271 273 274 282 277 278 284 285 286 290 286 287 269 258 254 253 249 245 238 226 218 226 235 234 242 246 255 265 273 275 285
275 275 273 274 273 270 271 268 264 263 263 264 266 270 274 278 280 282 277 281 284 287 288 291 287 289 271 258 244 246 244 242 234 230 218 222 232 236 236 242 248 259 260 274 287
272 275 276 275 275 273 269 264 261 261 262 265 270 271 277 278 282 284 281 281 286 286 290 291 290 293 270 255 249 249 248 235 232 232 222 223 226 232 239 238 246 255 263 267 280
273 272 273 272 271 269 268 266 263 263 265 269 271 274 275 282 282 281 281 283 285 288 290 291 299 285 261 244 240 248 257 242 233 232 233 233 228 226 234 240 244 246 256 268 270
274 272 270 268 268 269 267 266 266 267 268 271 273 273 277 279 280 281 282 284 289 288 292 292 298 268 249 237 237 247 239 232 249 231 229 230 246 237 219 245 250 244 253 272 267
275 273 270 270 271 269 267 265 265 266 269 270 272 273 275 276 282 282 283 285 286 289 294 295 296 261 241 231 240 243 232 221 233 226 228 221 227 246 237 237 247 239 240 261 278
278 277 276 273 269 269 269 268 267 268 265 268 266 271 273 278 282 284 285 286 286 291 293 298 292 261 241 228 238 241 234 219 223 216 217 220 227 246 246 236 245 240 242 241 261
280 279 278 276 274 272 271 272 270 268 266 260 270 274 274 279 282 281 283 284 285 289 293 299 292 255 229 227 235 248 226 212 219 211 208 213 207 221 234 243 253 252 243 250 269
282 282 280 278 275 274 272 272 270 269 267 267 268 267 271 275 275 281 282 280 281 288 295 304 307 254 237 227 244 244 230 205 215 217 217 200 217 220 235 243 237 244 253 253 267
280 279 277 277 277 273 274 272 270 270 272 269 269 269 268 270 271 274 277 276 278 282 292 303 320 258 241 237 251 247 220 206 213 216 214 213 224 213 224 231 213 215 238 249 258
281 279 278 276 273 271 269 267 267 267 270 268 268 268 268 268 267 271 275 276 276 275 288 296 316 289 246 239 242 240 231 216 215 218 222 216 230 214 225 245 209 215 235 252 241
282 278 275 274 270 268 264 263 263 265 264 265 258 262 266 264 262 260 268 275 273 274 277 288 307 307 255 243 241 232 231 222 220 219 226 220 230 229 213 217 205 241 222 240 254
280 277 273 269 265 263 258 256 256 260 256 246 261 256 256 263 269 270 272 267 267 264 271 276 294 312 274 246 242 231 233 230 227 229 230 224 230 219 220 209 194 208 227 236 244
282 276 272 264 259 256 252 248 254 243 236 236 249 256 249 249 255 269 272 263 256 263 267 274 286 311 295 240 234 238 239 228 225 229 231 224 228 213 204 210 219 219 236 246 246
283 280 274 261 254 248 245 247 241 238 234 233 240 244 243 234 245 249 255 267 267 249 266 261 258 286 311 233 236 240 240 210 207 220 228 221 219 196 199 221 219 219 224 229 243
284 282 270 262 254 249 245 243 233 221 232 237 233 230 229 233 241 246 252 256 255 255 261 257 249 253 282 280 227 209 214 205 204 204 199 199 199 195 199 206 209 202 231 239 231
282 285 281 278 256 253 247 240 229 227 227 229 227 229 227 230 239 238 242 250 249 248 250 257 247 228 248 268 236 211 211 228 217 212 195 186 189 196 187 198 209 214 218 241 253
279 277 277 276 280 252 249 239 232 229 229 229 232 225 224 228 233 235 238 246 247 243 249 252 250 238 226 253 250 234 219 219 214 212 207 194 185 192 207 203 199 211 225 242 263
280 279 276 278 285 229 247 246 235 234 233 231 231 229 226 226 229 231 236 246 240 237 239 250 250 242 230 230 266 231 220 206 208 208 195 204 199 191 198 199 203 210 212 228 249
281 280 275 272 280 217 211 222 230 240 234 230 229 228 231 232 230 232 232 239 239 237 235 239 242 241 237 232 244 240 220 214 213 205 212 203 213 217 209 233 236 222 226 234 242
276 277 270 271 223 226 224 215 203 197 232 227 225 224 223 228 232 229 234 236 238 238 237 233 239 239 223 230 229 241 217 223 211 204 218 218 220 217 228 234 228 217 234 240 235
275 267 264 281 203 185 212 217 216 206 202 212 217 225 223 227 231 232 235 239 244 247 249 250 241 241 232 228 228 219 210 219 217 212 222 213 227 218 223 218 213 221 226 235 238